Weather in Pysmenne

Ukraine / Dnipropetrovsk Region     48°12′06″N   35°48′20″E
temp.,
°C
wind,
m/s
gust,
m/s
humid.,
%
clouds,
%
prec.,
mm/h
press.,
hPa
HPBL,
m
29 may, sun
sun2900:00+16nne2369100 0.0 101362
03:00+15ene2270100 0.1 101340
06:00+15e238190 0.0 1013134
09:00+17wnw4481100 0.2 1013556
12:00+17n3273100 0.0 1015526
15:00+19n3268100 0.0 1015706
18:00+15nne458373 0.0 1016208
21:00+13ne47884 0.0 1017182
30 may, mon
mon3000:00+11ene37945 0.0 1017121
03:00+11ene47963 0.0 1017131
06:00+12ene499152 0.0 1017211
09:00+20ese57670 0.0 1016561
12:00+25se564939 0.0 10161274
15:00+27se5546100 0.0 10151750
18:00+26ese455316 0.0 10141682
21:00+20ese34764 0.0 101446
31 may, tue
tue3100:00+18ese36835 0.0 101494
03:00+17se488577 0.0 1013144
06:00+18sse25880 3.8 1014170
09:00+24sse34692 4.1 1014605
12:00+28s465128 0.0 10131649
15:00+28ssw345110 0.0 10131031
18:00+28wnw4553100 0.0 1013571
21:00+19nne71289100 2.3 1015376
1 june, wed
wed100:00+18nnw2393100 0.1 101534
03:00+16n489484 0.2 1015168
06:00+17n599698 0.6 1016295
09:00+21ne567799 0.7 1017546
12:00+25ne446359 0.0 1016943
15:00+28ne335420 0.0 10161480
18:00+25n466792 0.4 1015160
21:00+20nne71081100 8.4 1015186
2 june, thu
thu200:00+18sw1288100 3.4 101632
03:00+18n3381100 3.4 101632
06:00+18n348081 0.0 101683
09:00+24n33672 0.0 1016458
12:00+27n32555 0.0 10161135
15:00+29nnw32475 0.0 10162068
18:00+28n21479 0.0 10161608
21:00+21s137993 0.5 101751